Paso Robles, CA

8:47 AM PST on December 11, 2019 (GMT -0800)
Paso Robles Municipal

Weather History for KPRB - July, 2019

Change the Weather History Date:

Sunday, July 21, 2019

  Actual Average Record
Temperature  
Mean Temperature 73 °F 74 °F  
Max Temperature 93 °F 93 °F 112 °F (2006)
Min Temperature 53 °F 55 °F 45 °F (1987)
Degree Days  
Heating Degree Days 0 0  
Month to date heating degree days 0 0  
Since 1 June heating degree days 6 27  
Since 1 July heating degree days 0 0  
Cooling Degree Days 8 9  
Month to date cooling degree days 160 175  
Year to date cooling degree days 363 386  
Since 1 June cooling degree days 316 318  
Growing Degree Days 22 (Base 50)    
Moisture  
Dew Point 53 °F    
Average Humidity 62    
Maximum Humidity 100    
Minimum Humidity 23    
Precipitation  
Precipitation 0.00 in 0.00 in 0.00 in (2019)
Month to date precipitation 0.00 0.00  
Year to date precipitation 11.28 8.79  
Sea Level Pressure  
Sea Level Pressure 29.91 in    
Wind  
Wind Speed 7 mph (SW)    
Max Wind Speed 24 mph    
Max Gust Speed 29 mph    
Visibility 9 miles    
Events      
T = Trace of Precipitation, MM = Missing Value Source: NWS Daily Summary

Daily Weather History Graph

Daily Weather History Graph

Search for Another Location

Airport or City:

Astronomy

Jul. 21, 2019 Rise Set
Actual Time 6:02 AM PDT 8:15 PM PDT
Civil Twilight 5:33 AM PDT 8:44 PM PDT
Nautical Twilight 4:57 AM PDT 9:19 PM PDT
Astronomical Twilight 4:19 AM PDT 9:57 PM PDT
Moon 11:20 PM PDT (7/21) 10:20 AM PDT (7/21)
Length of Visible Light 15h 10m
Length of Day
14h 13m
Waning Gibbous, 79% of the Moon is Illuminated
Jul 21
Waning Gibbous
Jul 24
Last Quarter
Jul 31
New
Aug 7
First Quarter
Aug 15
Full

Hourly Weather History & Observations

Time (PDT) Temp. Heat Index Dew Point Humidity Pressure Visibility Wind Dir Wind Speed Gust Speed Precip Events Conditions
12:53 AM 60.1 °F - 53.1 °F 78% 29.90 in 10.0 mi WSW 3.5 mph - N/A   Clear
1:53 AM 57.9 °F - 53.1 °F 84% 29.90 in 10.0 mi WNW 5.8 mph - N/A   Clear
2:53 AM 57.0 °F - 53.1 °F 87% 29.90 in 10.0 mi West 4.6 mph - N/A   Clear
3:53 AM 55.9 °F - 53.1 °F 90% 29.90 in 10.0 mi Calm Calm - N/A   Clear
4:53 AM 55.0 °F - 53.1 °F 93% 29.91 in 10.0 mi North - - N/A   Clear
5:53 AM 55.0 °F - 53.1 °F 93% 29.92 in 10.0 mi Calm Calm - N/A   Clear
6:19 AM 54.0 °F - 51.1 °F 90% 29.94 in 10.0 mi Calm Calm - N/A   Scattered Clouds
6:27 AM 54.0 °F - 52.0 °F 93% 29.94 in 10.0 mi North 3.5 mph - N/A   Mostly Cloudy
6:53 AM 55.9 °F - 54.0 °F 93% 29.94 in 9.0 mi Calm Calm - N/A   Overcast
7:17 AM 55.9 °F - 54.0 °F 93% 29.95 in 1.8 mi Calm Calm - N/A   Overcast
7:28 AM 55.9 °F - 55.0 °F 97% 29.96 in 3.0 mi Calm Calm - N/A   Overcast
7:53 AM 55.9 °F - 55.9 °F 100% 29.94 in 8.0 mi Calm Calm - N/A   Overcast
8:16 AM 60.1 °F - 55.0 °F 83% 29.96 in 10.0 mi NW 3.5 mph - N/A   Scattered Clouds
8:53 AM 62.1 °F - 55.9 °F 80% 29.95 in 10.0 mi Calm Calm - N/A   Clear
9:53 AM 69.1 °F - 55.9 °F 63% 29.93 in 10.0 mi Calm Calm - N/A   Clear
10:53 AM 75.9 °F - 55.0 °F 48% 29.92 in 10.0 mi Variable 3.5 mph - N/A   Clear
11:53 AM 82.9 °F 81.8 °F 53.1 °F 36% 29.91 in 10.0 mi Variable 4.6 mph - N/A   Clear
12:53 PM 87.1 °F 84.9 °F 53.1 °F 31% 29.88 in 10.0 mi Variable 4.6 mph - N/A   Clear
1:53 PM 91.0 °F 88.7 °F 54.0 °F 28% 29.87 in 10.0 mi SW 11.5 mph - N/A   Clear
2:53 PM 91.0 °F - 48.0 °F 23% 29.87 in 10.0 mi SSW 17.3 mph - N/A   Clear
3:53 PM 88.0 °F - 48.0 °F 25% 29.86 in 10.0 mi SSW 18.4 mph - N/A   Clear
4:53 PM 84.9 °F - 50.0 °F 30% 29.86 in 10.0 mi SSW 18.4 mph - N/A   Clear
5:53 PM 82.0 °F - 52.0 °F 35% 29.86 in 10.0 mi SW 17.3 mph - N/A   Clear
6:53 PM 81.0 °F - 48.9 °F 33% 29.87 in 10.0 mi SSW 12.7 mph - N/A   Clear
7:53 PM 77.0 °F - 48.9 °F 37% 29.88 in 10.0 mi SSW 10.4 mph - N/A   Clear
8:53 PM 72.0 °F - 51.1 °F 48% 29.88 in 10.0 mi South 10.4 mph - N/A   Clear
9:53 PM 70.0 °F - 51.1 °F 51% 29.91 in 10.0 mi SSW 9.2 mph - N/A   Clear
10:53 PM 66.9 °F - 52.0 °F 59% 29.92 in 10.0 mi Calm Calm - N/A   Clear
11:53 PM 64.9 °F - 51.1 °F 61% 29.92 in 10.0 mi West 5.8 mph - N/A   Clear